EIN7RC LEBB-EIDW

Flight info

Callsign EIN7RC
Flight time 1h 48m
Altitude 20000
Route DOSUL N75 DELOG/N0437F380 DCT NOVAN DCT DOLUR DCT UPCAB DCT IJALA DCT EVRIN DCT BUNED BUNED4L
Aircraft A20N/M-SDE2E3FGHIRWXY/LB1

Departure

Time 2026-05-06 06:57
Airport Bilbao Airport (LEBB)

Arrival

Time 2026-05-06 08:46
Airport Dublin Airport (EIDW)
Time Latitude Longitude Altitude Speed Heading
2026-05-06 06:32 43.30442 -2.90687 158 ft 0 kts 26°
2026-05-06 06:48 43.30437 -2.90690 153 ft 2 kts 26°
2026-05-06 06:48 43.30423 -2.90700 153 ft 2 kts 26°
2026-05-06 06:49 43.30409 -2.90709 153 ft 2 kts 26°
2026-05-06 06:49 43.30395 -2.90719 153 ft 2 kts 26°
2026-05-06 06:49 43.30385 -2.90736 152 ft 2 kts 89°
2026-05-06 06:49 43.30386 -2.90749 152 ft 1 kts 122°
2026-05-06 06:50 43.30390 -2.90756 152 ft 0 kts 117°
2026-05-06 06:51 43.30389 -2.90753 152 ft 1 kts 117°
2026-05-06 06:52 43.30378 -2.90726 153 ft 4 kts 116°
2026-05-06 06:52 43.30356 -2.90664 153 ft 10 kts 117°
2026-05-06 06:52 43.30291 -2.90569 149 ft 16 kts 146°
2026-05-06 06:52 43.30176 -2.90556 138 ft 13 kts 208°
2026-05-06 06:53 43.30094 -2.90513 133 ft 16 kts 117°
2026-05-06 06:53 43.30042 -2.90370 132 ft 15 kts 116°
2026-05-06 06:53 43.29989 -2.90227 130 ft 16 kts 116°
2026-05-06 06:53 43.29933 -2.90071 125 ft 19 kts 116°
2026-05-06 06:54 43.29866 -2.89881 116 ft 23 kts 116°
2026-05-06 06:54 43.29797 -2.89693 105 ft 14 kts 116°
2026-05-06 06:54 43.29735 -2.89584 100 ft 15 kts 177°
2026-05-06 06:54 43.29708 -2.89595 100 ft 0 kts 218°
2026-05-06 06:55 43.29707 -2.89597 100 ft 1 kts 218°
2026-05-06 06:55 43.29673 -2.89637 100 ft 11 kts 226°
2026-05-06 06:55 43.29638 -2.89759 104 ft 16 kts 281°
2026-05-06 06:56 43.29693 -2.89923 112 ft 21 kts 296°
2026-05-06 06:56 43.29769 -2.90132 118 ft 28 kts 296°
2026-05-06 06:56 43.29914 -2.90528 124 ft 79 kts 296°
2026-05-06 06:56 43.30272 -2.91502 132 ft 145 kts 296°
2026-05-06 06:57 43.30780 -2.92910 385 ft 174 kts 298°
2026-05-06 06:57 43.31367 -2.94457 1005 ft 183 kts 298°
2026-05-06 06:57 43.32015 -2.96090 1723 ft 189 kts 300°
2026-05-06 06:57 43.32755 -2.97707 2426 ft 196 kts 308°
2026-05-06 06:58 43.33756 -2.99153 2947 ft 212 kts 320°
2026-05-06 06:58 43.35030 -3.00548 3387 ft 237 kts 320°
2026-05-06 06:58 43.36282 -3.02118 4089 ft 249 kts 318°
2026-05-06 06:58 43.37544 -3.03754 5030 ft 250 kts 317°
2026-05-06 06:59 43.38808 -3.05424 5970 ft 251 kts 316°
2026-05-06 06:59 43.40126 -3.07020 6853 ft 256 kts 326°
2026-05-06 06:59 43.41807 -3.07975 7738 ft 262 kts 347°
2026-05-06 06:59 43.43608 -3.08268 8590 ft 266 kts 352°
2026-05-06 07:00 43.45469 -3.08490 9413 ft 270 kts 348°
2026-05-06 07:00 43.47224 -3.09355 10240 ft 268 kts 324°
2026-05-06 07:00 43.48723 -3.10898 10912 ft 277 kts 319°
2026-05-06 07:00 43.50279 -3.12673 11392 ft 294 kts 319°
2026-05-06 07:01 43.51912 -3.14501 11892 ft 309 kts 320°
2026-05-06 07:01 43.53617 -3.16360 12627 ft 314 kts 320°
2026-05-06 07:01 43.55348 -3.18222 13429 ft 316 kts 321°
2026-05-06 07:01 43.57112 -3.20101 14180 ft 320 kts 321°
2026-05-06 07:02 43.58866 -3.21956 14902 ft 323 kts 321°
2026-05-06 07:02 43.60671 -3.23866 15644 ft 328 kts 321°
2026-05-06 07:02 43.62521 -3.25826 16400 ft 331 kts 321°
2026-05-06 07:02 43.64354 -3.27766 17132 ft 334 kts 321°
2026-05-06 07:03 43.66238 -3.29760 17803 ft 340 kts 321°
2026-05-06 07:03 43.68144 -3.31776 18458 ft 345 kts 321°
2026-05-06 07:03 43.70112 -3.33805 19151 ft 349 kts 322°
2026-05-06 07:03 43.72167 -3.35897 19743 ft 353 kts 322°
2026-05-06 07:04 43.74236 -3.38004 20024 ft 354 kts 322°
2026-05-06 07:04 43.76300 -3.40114 20087 ft 352 kts 323°
2026-05-06 07:04 43.78357 -3.42220 20117 ft 351 kts 323°
2026-05-06 07:04 43.80377 -3.44290 20077 ft 350 kts 323°
2026-05-06 07:05 43.82408 -3.46373 20058 ft 350 kts 323°
2026-05-06 07:05 43.84430 -3.48448 20049 ft 349 kts 323°
2026-05-06 07:05 43.86451 -3.50522 20037 ft 349 kts 323°
2026-05-06 07:05 43.88470 -3.52597 20015 ft 349 kts 323°
2026-05-06 07:06 43.90525 -3.54712 20005 ft 349 kts 323°
2026-05-06 07:06 43.92530 -3.56777 20000 ft 349 kts 323°
2026-05-06 07:06 43.94515 -3.58824 20000 ft 349 kts 323°
2026-05-06 07:06 43.96479 -3.60852 20002 ft 349 kts 323°
2026-05-06 07:07 43.98489 -3.62929 20003 ft 349 kts 323°
2026-05-06 07:07 44.00443 -3.64949 20003 ft 349 kts 323°
2026-05-06 07:07 44.02388 -3.66963 20006 ft 349 kts 323°
2026-05-06 07:07 44.04355 -3.69000 20010 ft 349 kts 323°
2026-05-06 07:08 44.06312 -3.71030 20011 ft 349 kts 323°
2026-05-06 07:08 44.08305 -3.73099 20012 ft 349 kts 323°
2026-05-06 07:08 44.10269 -3.75139 20009 ft 349 kts 323°
2026-05-06 07:08 44.12250 -3.77197 20006 ft 349 kts 323°
2026-05-06 07:09 44.14246 -3.79273 20004 ft 349 kts 323°
2026-05-06 07:09 44.16246 -3.81356 20002 ft 349 kts 323°
2026-05-06 07:09 44.18216 -3.83409 20002 ft 349 kts 323°
2026-05-06 07:09 44.20187 -3.85466 20001 ft 349 kts 323°
2026-05-06 07:10 44.22134 -3.87499 20001 ft 349 kts 323°
2026-05-06 07:10 44.24104 -3.89559 20001 ft 349 kts 323°
2026-05-06 07:10 44.26091 -3.91638 20001 ft 349 kts 323°
2026-05-06 07:10 44.28094 -3.93735 20001 ft 349 kts 323°
2026-05-06 07:11 44.30113 -3.95850 20001 ft 349 kts 323°
2026-05-06 07:11 44.32248 -3.97605 19994 ft 349 kts 338°
2026-05-06 07:11 44.34691 -3.98386 19997 ft 351 kts 355°
2026-05-06 07:11 44.37200 -3.98241 20004 ft 352 kts
2026-05-06 07:12 44.39717 -3.97881 20002 ft 351 kts
2026-05-06 07:12 44.42222 -3.97510 20001 ft 351 kts
2026-05-06 07:12 44.44839 -3.97126 20001 ft 351 kts
2026-05-06 07:12 44.47462 -3.96748 20000 ft 351 kts
2026-05-06 07:13 44.50068 -3.96375 20000 ft 351 kts
2026-05-06 07:13 44.52660 -3.96007 19999 ft 351 kts
2026-05-06 07:13 44.55155 -3.95654 19998 ft 351 kts
2026-05-06 07:13 44.57668 -3.95298 19998 ft 351 kts
2026-05-06 07:14 44.60169 -3.94945 19997 ft 351 kts
2026-05-06 07:14 44.62678 -3.94591 19997 ft 351 kts
2026-05-06 07:14 44.65181 -3.94237 19998 ft 351 kts
2026-05-06 07:14 44.67658 -3.93888 20000 ft 351 kts
2026-05-06 07:15 44.70142 -3.93538 20003 ft 350 kts
2026-05-06 07:15 44.72597 -3.93191 20006 ft 350 kts
2026-05-06 07:15 44.75076 -3.92841 20008 ft 350 kts
2026-05-06 07:15 44.77595 -3.92486 20009 ft 350 kts
2026-05-06 07:16 44.80058 -3.92139 20009 ft 350 kts
2026-05-06 07:16 44.82540 -3.91788 20009 ft 350 kts
2026-05-06 07:16 44.85060 -3.91431 20012 ft 351 kts
2026-05-06 07:16 44.87542 -3.91079 20267 ft 358 kts
2026-05-06 07:17 44.90012 -3.90728 20891 ft 358 kts
2026-05-06 07:17 44.92511 -3.90372 21501 ft 360 kts
2026-05-06 07:17 44.94996 -3.90019 22058 ft 363 kts
2026-05-06 07:17 44.97525 -3.89658 22610 ft 366 kts
2026-05-06 07:18 45.00059 -3.89297 23143 ft 369 kts
2026-05-06 07:18 45.02678 -3.88922 23697 ft 372 kts
2026-05-06 07:18 45.05303 -3.88547 24261 ft 375 kts
2026-05-06 07:18 45.08029 -3.88155 24826 ft 377 kts
2026-05-06 07:19 45.10700 -3.87767 25358 ft 380 kts
2026-05-06 07:19 45.13358 -3.87381 25895 ft 383 kts
2026-05-06 07:19 45.16030 -3.86993 26429 ft 386 kts
2026-05-06 07:19 45.18749 -3.86599 26967 ft 388 kts
2026-05-06 07:20 45.21471 -3.86205 27493 ft 390 kts
2026-05-06 07:20 45.24227 -3.85806 28008 ft 392 kts
2026-05-06 07:20 45.26979 -3.85408 28508 ft 394 kts
2026-05-06 07:20 45.29710 -3.85013 28990 ft 396 kts
2026-05-06 07:21 45.32489 -3.84611 29463 ft 398 kts
2026-05-06 07:21 45.35300 -3.84204 29917 ft 400 kts
2026-05-06 07:21 45.38058 -3.83804 30389 ft 402 kts
2026-05-06 07:21 45.40849 -3.83399 30858 ft 404 kts
2026-05-06 07:22 45.43665 -3.82990 31322 ft 406 kts
2026-05-06 07:22 45.46449 -3.82586 31715 ft 407 kts
2026-05-06 07:22 45.49282 -3.82174 32101 ft 408 kts
2026-05-06 07:22 45.52121 -3.81760 32551 ft 407 kts
2026-05-06 07:23 45.54945 -3.81349 33000 ft 406 kts
2026-05-06 07:23 45.57741 -3.80941 33387 ft 405 kts
2026-05-06 07:23 45.60555 -3.80531 33744 ft 405 kts
2026-05-06 07:23 45.63341 -3.80124 34076 ft 405 kts
2026-05-06 07:24 45.66148 -3.79713 34401 ft 405 kts
2026-05-06 07:24 45.68947 -3.79304 34717 ft 405 kts
2026-05-06 07:24 45.71755 -3.78893 35024 ft 406 kts
2026-05-06 07:24 45.74541 -3.78484 35322 ft 406 kts
2026-05-06 07:25 45.77375 -3.78068 35616 ft 406 kts
2026-05-06 07:25 45.80182 -3.77656 35837 ft 406 kts
2026-05-06 07:25 45.82959 -3.77246 36036 ft 406 kts
2026-05-06 07:25 45.85775 -3.76831 36225 ft 407 kts
2026-05-06 07:26 45.88602 -3.76414 36406 ft 408 kts
2026-05-06 07:26 45.91397 -3.76002 36554 ft 408 kts
2026-05-06 07:26 45.94235 -3.75582 36685 ft 409 kts
2026-05-06 07:26 45.97105 -3.75155 36800 ft 410 kts
2026-05-06 07:27 45.99925 -3.74736 36911 ft 412 kts
2026-05-06 07:27 46.02830 -3.74303 37027 ft 413 kts
2026-05-06 07:27 46.05727 -3.73874 37140 ft 414 kts
2026-05-06 07:27 46.08617 -3.73445 37261 ft 415 kts
2026-05-06 07:28 46.11466 -3.73022 37382 ft 416 kts
2026-05-06 07:28 46.14372 -3.72591 37501 ft 417 kts
2026-05-06 07:28 46.18694 -3.71952 37469 ft 420 kts
2026-05-06 07:29 46.24574 -3.71101 37655 ft 427 kts
2026-05-06 07:29 46.30513 -3.70971 37848 ft 432 kts 356°
2026-05-06 07:30 46.36767 -3.72004 37996 ft 429 kts 349°
2026-05-06 07:30 46.43108 -3.74250 37938 ft 423 kts 344°
2026-05-06 07:31 46.49363 -3.76809 37939 ft 423 kts 344°
2026-05-06 07:31 46.55505 -3.79320 37942 ft 423 kts 344°
2026-05-06 07:32 46.61840 -3.81908 37934 ft 423 kts 344°
2026-05-06 07:32 46.68077 -3.84456 37941 ft 423 kts 344°
2026-05-06 07:33 46.74394 -3.87041 37933 ft 422 kts 344°
2026-05-06 07:33 46.80573 -3.89575 37936 ft 422 kts 344°
2026-05-06 07:34 46.86785 -3.92130 37955 ft 423 kts 344°
2026-05-06 07:34 46.93050 -3.94713 37955 ft 423 kts 344°
2026-05-06 07:35 46.99186 -3.97249 37961 ft 423 kts 344°
2026-05-06 07:35 47.05442 -3.99843 37955 ft 423 kts 344°
2026-05-06 07:36 47.11519 -4.02366 37955 ft 422 kts 344°
2026-05-06 07:36 47.17604 -4.04892 37956 ft 422 kts 344°
2026-05-06 07:37 47.20570 -4.06129 38060 ft 421 kts 344°
2026-05-06 07:37 47.23592 -4.07391 38120 ft 417 kts 344°
2026-05-06 07:37 47.26699 -4.08684 37709 ft 416 kts 344°
2026-05-06 07:37 47.29816 -4.09987 37825 ft 416 kts 344°
2026-05-06 07:38 47.35862 -4.12524 37941 ft 422 kts 344°
2026-05-06 07:38 47.41919 -4.15071 37962 ft 423 kts 344°
2026-05-06 07:39 47.48045 -4.17650 37953 ft 423 kts 344°
2026-05-06 07:39 47.54183 -4.20239 37954 ft 424 kts 344°
2026-05-06 07:40 47.60216 -4.22791 37956 ft 424 kts 344°
2026-05-06 07:40 47.66215 -4.25336 37956 ft 424 kts 344°
2026-05-06 07:41 47.72265 -4.27909 37956 ft 424 kts 344°
2026-05-06 07:41 47.78219 -4.30447 37956 ft 424 kts 344°
2026-05-06 07:42 47.84064 -4.32944 37955 ft 424 kts 344°
2026-05-06 07:42 47.89738 -4.35375 37954 ft 424 kts 344°
2026-05-06 07:43 47.95435 -4.37821 37953 ft 424 kts 344°
2026-05-06 07:43 48.01098 -4.40261 37953 ft 424 kts 344°
2026-05-06 07:44 48.06756 -4.42703 37953 ft 424 kts 344°
2026-05-06 07:44 48.12410 -4.45148 37960 ft 424 kts 344°
2026-05-06 07:45 48.18051 -4.47592 37963 ft 423 kts 344°
2026-05-06 07:45 48.23712 -4.50049 37961 ft 423 kts 344°
2026-05-06 07:46 48.29340 -4.52498 37960 ft 423 kts 344°
2026-05-06 07:46 48.34988 -4.54962 37960 ft 423 kts 344°
2026-05-06 07:47 48.40642 -4.57435 37961 ft 423 kts 344°
2026-05-06 07:47 48.46271 -4.59901 37961 ft 423 kts 344°
2026-05-06 07:48 48.51902 -4.62375 37962 ft 423 kts 344°
2026-05-06 07:48 48.57532 -4.64855 37962 ft 423 kts 344°
2026-05-06 07:49 48.63206 -4.67361 37963 ft 423 kts 343°
2026-05-06 07:49 48.68874 -4.69869 37963 ft 423 kts 343°
2026-05-06 07:50 48.74581 -4.72400 37964 ft 423 kts 343°
2026-05-06 07:50 48.80265 -4.74926 37964 ft 423 kts 343°
2026-05-06 07:51 48.85881 -4.77428 37966 ft 423 kts 343°
2026-05-06 07:51 48.91488 -4.79930 37967 ft 422 kts 343°
2026-05-06 07:52 48.97150 -4.82468 37967 ft 422 kts 343°
2026-05-06 07:52 49.02794 -4.85002 37968 ft 423 kts 343°
2026-05-06 07:53 49.08455 -4.87551 37969 ft 423 kts 343°
2026-05-06 07:53 49.14081 -4.90089 37971 ft 423 kts 343°
2026-05-06 07:54 49.19823 -4.92685 37972 ft 423 kts 343°
2026-05-06 07:54 49.25647 -4.95325 37973 ft 422 kts 343°
2026-05-06 07:55 49.31538 -4.98003 37975 ft 422 kts 343°
2026-05-06 07:55 49.37271 -5.00617 37976 ft 422 kts 343°
2026-05-06 07:56 49.42918 -5.03196 37977 ft 422 kts 343°
2026-05-06 07:56 49.48557 -5.06305 37979 ft 422 kts 336°
2026-05-06 07:57 49.53886 -5.10375 37984 ft 422 kts 331°
2026-05-06 07:57 49.58998 -5.14797 37988 ft 422 kts 330°
2026-05-06 07:58 49.64100 -5.19241 37990 ft 422 kts 330°
2026-05-06 07:58 49.69221 -5.23701 37992 ft 422 kts 330°
2026-05-06 07:59 49.74311 -5.28140 37992 ft 422 kts 330°
2026-05-06 07:59 49.79395 -5.32583 37993 ft 422 kts 330°
2026-05-06 08:00 49.84514 -5.37067 37995 ft 422 kts 330°
2026-05-06 08:00 49.89616 -5.41545 37997 ft 421 kts 330°
2026-05-06 08:01 49.94708 -5.46028 37998 ft 421 kts 330°
2026-05-06 08:01 49.99795 -5.50516 37998 ft 421 kts 330°
2026-05-06 08:02 50.04862 -5.54997 37998 ft 421 kts 330°
2026-05-06 08:02 50.09968 -5.59525 38003 ft 421 kts 330°
2026-05-06 08:03 50.15102 -5.64085 38008 ft 421 kts 331°
2026-05-06 08:03 50.20472 -5.67937 38006 ft 422 kts 336°
2026-05-06 08:04 50.25919 -5.71462 38007 ft 422 kts 339°
2026-05-06 08:04 50.31469 -5.74426 38009 ft 423 kts 340°
2026-05-06 08:05 50.37053 -5.77379 38010 ft 423 kts 340°
2026-05-06 08:05 50.42587 -5.80352 38010 ft 423 kts 340°
2026-05-06 08:06 50.48145 -5.83364 38010 ft 423 kts 340°
2026-05-06 08:06 50.53693 -5.86383 38010 ft 423 kts 340°
2026-05-06 08:07 50.59543 -5.89578 38010 ft 423 kts 340°
2026-05-06 08:07 50.65167 -5.92658 38009 ft 423 kts 340°
2026-05-06 08:08 50.70810 -5.96190 38009 ft 422 kts 333°
2026-05-06 08:08 50.76002 -6.00395 38009 ft 421 kts 332°
2026-05-06 08:09 50.81169 -6.04609 38009 ft 421 kts 332°
2026-05-06 08:09 50.86369 -6.08826 38012 ft 421 kts 332°
2026-05-06 08:10 50.91587 -6.13055 38013 ft 421 kts 332°
2026-05-06 08:10 50.96781 -6.17271 38012 ft 420 kts 332°
2026-05-06 08:11 51.01965 -6.21489 38012 ft 420 kts 332°
2026-05-06 08:11 51.07170 -6.25734 38012 ft 420 kts 332°
2026-05-06 08:12 51.12413 -6.30027 38012 ft 420 kts 332°
2026-05-06 08:12 51.17575 -6.34264 38013 ft 420 kts 332°
2026-05-06 08:13 51.22801 -6.38502 38013 ft 421 kts 333°
2026-05-06 08:13 51.28201 -6.42017 38014 ft 423 kts 340°
2026-05-06 08:14 51.33864 -6.44529 38013 ft 424 kts 347°
2026-05-06 08:14 51.39646 -6.46164 38016 ft 424 kts 349°
2026-05-06 08:15 51.45431 -6.47656 38022 ft 424 kts 349°
2026-05-06 08:15 51.51252 -6.49176 38026 ft 424 kts 349°
2026-05-06 08:16 51.57093 -6.50715 38028 ft 425 kts 349°
2026-05-06 08:16 51.62920 -6.52254 38029 ft 425 kts 349°
2026-05-06 08:17 51.68728 -6.53794 38030 ft 425 kts 349°
2026-05-06 08:17 51.74985 -6.55457 38031 ft 425 kts 349°
2026-05-06 08:18 51.81348 -6.56581 38032 ft 426 kts 355°
2026-05-06 08:18 51.87329 -6.57053 37740 ft 432 kts 356°
2026-05-06 08:19 51.90368 -6.57280 37116 ft 439 kts 356°
2026-05-06 08:19 51.93414 -6.57511 36570 ft 440 kts 355°
2026-05-06 08:19 51.96454 -6.57743 36093 ft 437 kts 355°
2026-05-06 08:19 51.99444 -6.57973 35579 ft 437 kts 355°
2026-05-06 08:20 52.02481 -6.58211 35019 ft 437 kts 355°
2026-05-06 08:20 52.05521 -6.58450 34418 ft 438 kts 355°
2026-05-06 08:20 52.08566 -6.58688 33788 ft 438 kts 355°
2026-05-06 08:20 52.11601 -6.58927 33148 ft 439 kts 355°
2026-05-06 08:21 52.14624 -6.59166 32492 ft 439 kts 355°
2026-05-06 08:21 52.17693 -6.59409 31732 ft 440 kts 355°
2026-05-06 08:21 52.20750 -6.59654 30891 ft 441 kts 355°
2026-05-06 08:21 52.23791 -6.59899 30091 ft 441 kts 355°
2026-05-06 08:22 52.26832 -6.60142 29456 ft 436 kts 355°
2026-05-06 08:22 52.29820 -6.60380 28855 ft 430 kts 355°
2026-05-06 08:22 52.32874 -6.60624 28122 ft 427 kts 355°
2026-05-06 08:22 52.35990 -6.60872 27486 ft 421 kts 355°
2026-05-06 08:23 52.39013 -6.61114 26923 ft 414 kts 355°
2026-05-06 08:23 52.41891 -6.61345 26435 ft 406 kts 355°
2026-05-06 08:23 52.44756 -6.61576 25954 ft 399 kts 355°
2026-05-06 08:23 52.47557 -6.61803 25471 ft 393 kts 355°
2026-05-06 08:24 52.50312 -6.62027 24995 ft 388 kts 355°
2026-05-06 08:24 52.53053 -6.62250 24537 ft 383 kts 355°
2026-05-06 08:24 52.55744 -6.62469 24078 ft 379 kts 355°
2026-05-06 08:24 52.58380 -6.62683 23618 ft 376 kts 355°
2026-05-06 08:25 52.61046 -6.62900 23146 ft 373 kts 355°
2026-05-06 08:25 52.63630 -6.63108 22762 ft 369 kts 355°
2026-05-06 08:25 52.66202 -6.63314 22332 ft 366 kts 355°
2026-05-06 08:25 52.68800 -6.63523 21873 ft 363 kts 355°
2026-05-06 08:26 52.71376 -6.63732 21413 ft 361 kts 355°
2026-05-06 08:26 52.73926 -6.63939 20952 ft 360 kts 355°
2026-05-06 08:26 52.76458 -6.64146 20492 ft 358 kts 355°
2026-05-06 08:26 52.78905 -6.64346 20043 ft 356 kts 355°
2026-05-06 08:27 52.81376 -6.64548 19589 ft 354 kts 355°
2026-05-06 08:27 52.83851 -6.64751 19129 ft 352 kts 355°
2026-05-06 08:27 52.86297 -6.64952 18671 ft 349 kts 355°
2026-05-06 08:27 52.88736 -6.65153 18213 ft 347 kts 354°
2026-05-06 08:28 52.91145 -6.65351 17757 ft 345 kts 354°
2026-05-06 08:28 52.93518 -6.65548 17303 ft 343 kts 354°
2026-05-06 08:28 52.95898 -6.65745 16854 ft 341 kts 355°
2026-05-06 08:28 52.98244 -6.65872 16406 ft 340 kts
2026-05-06 08:29 53.00523 -6.64914 15945 ft 342 kts 24°
2026-05-06 08:29 53.02433 -6.62547 15503 ft 344 kts 43°
2026-05-06 08:29 53.04059 -6.59681 15070 ft 342 kts 45°
2026-05-06 08:29 53.05681 -6.56777 14630 ft 339 kts 45°
2026-05-06 08:30 53.07275 -6.53943 14199 ft 337 kts 44°
2026-05-06 08:30 53.08881 -6.51112 13767 ft 335 kts 44°
2026-05-06 08:30 53.10461 -6.48340 13347 ft 332 kts 44°
2026-05-06 08:30 53.12048 -6.45560 12926 ft 330 kts 44°
2026-05-06 08:31 53.13613 -6.42819 12506 ft 328 kts 44°
2026-05-06 08:31 53.15234 -6.39977 12082 ft 326 kts 44°
2026-05-06 08:31 53.16588 -6.36822 11620 ft 328 kts 65°
2026-05-06 08:31 53.17015 -6.32993 11179 ft 328 kts 91°
2026-05-06 08:32 53.16815 -6.29145 10758 ft 327 kts 95°
2026-05-06 08:32 53.16571 -6.25284 10391 ft 322 kts 95°
2026-05-06 08:32 53.16352 -6.21626 10267 ft 309 kts 95°
2026-05-06 08:32 53.16153 -6.18101 10160 ft 296 kts 95°
2026-05-06 08:33 53.15968 -6.14669 10047 ft 284 kts 95°
2026-05-06 08:33 53.15796 -6.11434 9759 ft 279 kts 95°
2026-05-06 08:33 53.15626 -6.08224 9418 ft 277 kts 95°
2026-05-06 08:33 53.15459 -6.05063 9095 ft 274 kts 95°
2026-05-06 08:34 53.15292 -6.01939 8785 ft 270 kts 95°
2026-05-06 08:34 53.14961 -5.95805 8179 ft 264 kts 95°
2026-05-06 08:34 53.14796 -5.92776 7871 ft 262 kts 95°
2026-05-06 08:35 53.14631 -5.89783 7564 ft 259 kts 95°
2026-05-06 08:35 53.14465 -5.86763 7250 ft 257 kts 95°
2026-05-06 08:35 53.14301 -5.83803 7052 ft 249 kts 95°
2026-05-06 08:35 53.14265 -5.80974 7028 ft 233 kts 80°
2026-05-06 08:36 53.14801 -5.78446 7038 ft 228 kts 62°
2026-05-06 08:36 53.15602 -5.76102 7039 ft 226 kts 59°
2026-05-06 08:36 53.16422 -5.73799 7038 ft 224 kts 59°
2026-05-06 08:36 53.17222 -5.71522 7039 ft 224 kts 60°
2026-05-06 08:37 53.17992 -5.69303 7040 ft 223 kts 59°
2026-05-06 08:37 53.19026 -5.67397 7030 ft 224 kts 30°
2026-05-06 08:37 53.20512 -5.66686 7042 ft 227 kts 359°
2026-05-06 08:37 53.22075 -5.67386 7032 ft 240 kts 328°
2026-05-06 08:38 53.23371 -5.69154 6734 ft 242 kts 317°
2026-05-06 08:38 53.24603 -5.71052 6426 ft 241 kts 317°
2026-05-06 08:38 53.25830 -5.72928 6136 ft 239 kts 318°
2026-05-06 08:38 53.27056 -5.74782 5854 ft 237 kts 318°
2026-05-06 08:39 53.28268 -5.76600 5580 ft 235 kts 318°
2026-05-06 08:39 53.29489 -5.78423 5305 ft 233 kts 318°
2026-05-06 08:39 53.30685 -5.80206 5036 ft 232 kts 319°
2026-05-06 08:39 53.31898 -5.82011 4763 ft 230 kts 319°
2026-05-06 08:40 53.33092 -5.83789 4494 ft 229 kts 319°
2026-05-06 08:40 53.34264 -5.85536 4229 ft 227 kts 319°
2026-05-06 08:40 53.35439 -5.87289 3963 ft 226 kts 319°
2026-05-06 08:40 53.36612 -5.89038 3696 ft 224 kts 319°
2026-05-06 08:41 53.37763 -5.90755 3440 ft 223 kts 319°
2026-05-06 08:41 53.38924 -5.92488 3185 ft 222 kts 319°
2026-05-06 08:41 53.40019 -5.94369 3006 ft 223 kts 300°
2026-05-06 08:41 53.40491 -5.96722 3015 ft 209 kts 278°
2026-05-06 08:42 53.40668 -5.99078 3008 ft 200 kts 275°
2026-05-06 08:42 53.40783 -6.01408 3001 ft 201 kts 274°
2026-05-06 08:42 53.40890 -6.03710 2892 ft 193 kts 274°
2026-05-06 08:42 53.41001 -6.05936 2605 ft 189 kts 274°
2026-05-06 08:43 53.41114 -6.08108 2319 ft 185 kts 274°
2026-05-06 08:43 53.41228 -6.10258 2040 ft 178 kts 275°
2026-05-06 08:43 53.41333 -6.12241 1799 ft 164 kts 275°
2026-05-06 08:43 53.41431 -6.14069 1563 ft 152 kts 275°
2026-05-06 08:44 53.41524 -6.15798 1366 ft 142 kts 275°
2026-05-06 08:44 53.41611 -6.17407 1172 ft 136 kts 275°
2026-05-06 08:44 53.41694 -6.18963 989 ft 131 kts 276°
2026-05-06 08:44 53.41774 -6.20462 810 ft 126 kts 276°
2026-05-06 08:45 53.41853 -6.21909 633 ft 121 kts 276°
2026-05-06 08:45 53.41929 -6.23320 475 ft 121 kts 277°
2026-05-06 08:45 53.42009 -6.24780 332 ft 126 kts 277°
2026-05-06 08:45 53.42098 -6.26252 247 ft 117 kts 277°
2026-05-06 08:46 53.42144 -6.27129 246 ft 46 kts 274°
2026-05-06 08:46 53.42170 -6.27635 246 ft 40 kts 277°
2026-05-06 08:46 53.42262 -6.28025 247 ft 22 kts 300°
2026-05-06 08:46 53.42349 -6.28118 247 ft 15 kts 31°
2026-05-06 08:47 53.42358 -6.27944 247 ft 15 kts 94°
2026-05-06 08:47 53.42347 -6.27758 247 ft 15 kts 95°
2026-05-06 08:47 53.42337 -6.27581 247 ft 14 kts 96°
2026-05-06 08:47 53.42328 -6.27410 247 ft 14 kts 95°
2026-05-06 08:48 53.42319 -6.27239 247 ft 14 kts 95°
2026-05-06 08:48 53.42309 -6.27062 247 ft 15 kts 95°
2026-05-06 08:48 53.42298 -6.26885 247 ft 15 kts 97°
2026-05-06 08:48 53.42287 -6.26707 247 ft 15 kts 95°
2026-05-06 08:49 53.42278 -6.26524 247 ft 15 kts 96°
2026-05-06 08:49 53.42268 -6.26340 247 ft 15 kts 95°
2026-05-06 08:49 53.42258 -6.26154 247 ft 16 kts 95°
2026-05-06 08:49 53.42248 -6.25967 247 ft 16 kts 96°
2026-05-06 08:50 53.42238 -6.25780 247 ft 16 kts 95°
2026-05-06 08:50 53.42226 -6.25588 247 ft 16 kts 94°
2026-05-06 08:50 53.42218 -6.25397 247 ft 16 kts 96°
2026-05-06 08:50 53.42207 -6.25209 247 ft 15 kts 95°
2026-05-06 08:51 53.42197 -6.25028 247 ft 15 kts 95°
2026-05-06 08:51 53.42188 -6.24855 247 ft 14 kts 95°
2026-05-06 08:51 53.42210 -6.24697 247 ft 13 kts 79°
2026-05-06 08:51 53.42208 -6.24539 247 ft 13 kts 95°
2026-05-06 08:52 53.42201 -6.24385 247 ft 13 kts 89°
2026-05-06 08:52 53.42245 -6.24262 247 ft 12 kts 47°
2026-05-06 08:52 53.42300 -6.24223 247 ft 8 kts 322°
2026-05-06 08:52 53.42324 -6.24262 247 ft 0 kts 315°
2026-05-06 08:53 53.42324 -6.24263 247 ft 0 kts 315°